Home > Weather > San Bernardino > Past weeks

Flag for USA Past Weather in San Bernardino, California, USA — Yesterday and Last 2 Weeks

Now
85 °F

Clear.


Feels Like: 82 °F
Forecast: 70 / 101 °F
Wind: 7 mph from West

Location: Riverside Municipal Airport

Current Time: Jul 27, 2016 at 9:56:46 PM

Latest Report: Jul 27, 2016 at 8:53 PM


Visibility: 10 mi

Pressure: 29.84 "Hg

Humidity: 25%

Dew Point: 45 °F

Location of San BernardinoLocation

Past Weather in San Bernardino — Graph

°F

San Bernardino Temperature Yesterday

Maximum temperature yesterday: 101 °F (at 1:53 PM)
Minimum temperature yesterday: 73 °F (at 3:53 AM)
Average temperature yesterday: 86 °F

High & Low Weather Summary for the Past Weeks

 TemperatureHumidityPressure
High109 °F (Jul 23, 1:53 PM)90% (Jul 16, 5:53 AM)29.99 "Hg (Jul 16, 5:53 AM)
Low63 °F (Jul 16, 4:53 AM)7% (Jul 22, 1:53 PM)29.71 "Hg (Jul 23, 3:53 PM)
Average82 °F42%29.87 "Hg
* Reported Jul 12 8:53 PM — Jul 27 8:53 PM, San Bernardino, Weather by CustomWeather, © 2016

Note: Actual official high and low records may vary slightly from our data, if they occured in-between our weather recording intervals... More about our weather records

Advertising

San Bernardino Weather History for the Previous 24 Hours

Scroll right to see more
 ConditionsComfort  
Time TempWeatherWind HumidityBarometerVisibility
8:53 PM
Wed, Jul 27
85 °FClear.7 mph25%29.84 "Hg10 mi
7:53 PM88 °FSunny.8 mph20%29.83 "Hg10 mi
6:53 PM91 °FSunny.10 mph17%29.83 "Hg10 mi
5:53 PM93 °FSunny.14 mph17%29.81 "Hg10 mi
4:53 PM96 °FSunny.14 mph20%29.81 "Hg10 mi
3:53 PM99 °FSunny.13 mph16%29.82 "Hg10 mi
2:53 PM100 °FSunny.13 mph17%29.83 "Hg10 mi
1:53 PM99 °FSunny.8 mph16%29.84 "Hg10 mi
12:53 PM98 °FScattered clouds.7 mph15%29.85 "Hg10 mi
11:53 AM95 °FScattered clouds.5 mph16%29.87 "Hg10 mi
10:53 AM93 °FScattered clouds.7 mph16%29.88 "Hg10 mi
9:53 AM88 °FSunny.5 mph25%29.88 "Hg10 mi
8:53 AM83 °FSunny.No wind31%29.88 "Hg10 mi
7:53 AM78 °FSunny.No wind36%29.87 "Hg10 mi
6:53 AM75 °FClear.No wind45%29.86 "Hg10 mi
5:53 AM74 °FClear.No wind45%29.85 "Hg10 mi
4:53 AM75 °FClear.No wind45%29.84 "Hg10 mi
3:53 AM76 °FClear.No wind43%29.83 "Hg10 mi
2:53 AM77 °FClear.No wind35%29.83 "Hg10 mi
1:53 AM77 °FClear.3 mph36%29.83 "Hg10 mi
12:53 AM79 °FClear.No wind38%29.83 "Hg10 mi
11:53 PM
Tue, Jul 26
79 °FClear.5 mph38%29.85 "Hg10 mi
10:53 PM81 °FClear.3 mph38%29.85 "Hg10 mi
9:53 PM81 °FClear.5 mph38%29.85 "Hg10 mi
Weather by CustomWeather, © 2016

See weather overviewHow to use our weather pages